This is the latest recevied weather packets stored in our database for station/object KB1FFS. If no packets are shown the sender has not sent any weather packets the latest 10 day(s).
| Time | Temp. | Humidity | Pressure | Rain* | Wind** | Luminosity | Snow |
|---|---|---|---|---|---|---|---|
| 1777604461 | 16.67° C | 73% | 1017.1 hPa | 0 mm | - | 0 W/m² | - |
| 1777604161 | 16.67° C | 72% | 1016.5 hPa | 0 mm | - | 0 W/m² | - |
| 1777603858 | 16.67° C | 72% | 1016.7 hPa | 0 mm | - | 0 W/m² | - |
| 1777603554 | 16.67° C | 73% | 1016.7 hPa | 0 mm | - | 0 W/m² | - |
| 1777603250 | 16.67° C | 73% | 1016.6 hPa | 0 mm | - | 0 W/m² | - |
| 1777602946 | 16.67° C | 73% | 1016.3 hPa | 0 mm | - | 0 W/m² | - |
| 1777602641 | 16.67° C | 73% | 1016 hPa | 0 mm | - | 0 W/m² | - |
| 1777602336 | 16.67° C | 73% | 1016 hPa | 0 mm | - | 0 W/m² | - |
| 1777602033 | 16.67° C | 73% | 1015.9 hPa | 0 mm | - | 0 W/m² | - |
| 1777601423 | 16.67° C | 72% | 1015.8 hPa | 0 mm | - | 0 W/m² | - |
| 1777587168 | 17.22° C | 74% | 1014.9 hPa | 0 mm | - | 44 W/m² | - |
| 1777585648 | 17.22° C | 74% | 1014.8 hPa | 0 mm | - | 50 W/m² | - |
| 1777583828 | 17.78° C | 73% | 1014.8 hPa | 0 mm | - | 106 W/m² | - |
| 1777583217 | 17.78° C | 74% | 1015.1 hPa | 0 mm | - | 101 W/m² | - |
| 1777582912 | 17.78° C | 74% | 1015.2 hPa | 0 mm | - | 110 W/m² | - |
| 1777582610 | 17.78° C | 74% | 1015.1 hPa | 0 mm | - | 78 W/m² | - |
| 1777581087 | 17.22° C | 75% | 1014.9 hPa | 0 mm | - | 60 W/m² | - |
| 1777580786 | 17.22° C | 76% | 1014.8 hPa | 0 mm | - | 67 W/m² | - |
| 1777580182 | 17.22° C | 75% | 1015.1 hPa | 0 mm | - | 64 W/m² | - |
| 1777579279 | 17.22° C | 75% | 1015.1 hPa | 0 mm | - | 54 W/m² | - |
| 1777578061 | 17.22° C | 76% | 1015.4 hPa | 0 mm | - | 72 W/m² | - |
| 1777577761 | 17.22° C | 75% | 1015.3 hPa | 0 mm | - | 92 W/m² | - |
| 1777577155 | 17.22° C | 77% | 1014.8 hPa | 0 mm | - | 84 W/m² | - |
| 1777576851 | 17.22° C | 77% | 1014.8 hPa | 0 mm | - | 72 W/m² | - |
| 1777576550 | 17.22° C | 76% | 1014.7 hPa | 0 mm | - | 69 W/m² | - |
* Rain latest hour (hover to see other rain measurements)
** Current wind speed in m/s (hover to see current wind gust speed)